Regional Weather Roundup
Issued by NWS State College, PA

Home | Current Version | Previous Version | Text Only | Print | Product List | Glossary On
Versions: 1 2 3 4 5 6 7 8 9 10 11 12 13 14 15 16 17 18 19 20 21 22 23 24 25 26 27 28 29 30 31 32 33 34 35 36 37 38 39 40 41 42 43 44 45 46 47 48 49 50
910
ASUS41 KCTP 180310
RWRCTP

REGIONAL WEATHER ROUNDUP
NATIONAL WEATHER SERVICE STATE COLLEGE PA
1000 PM EST SAT FEB 17 2018

Note: "fair" indicates few or no clouds below 12,000 feet with no
significant weather and/or obstructions to visibility.

* = STATION THAT DOES NOT REPORT PRECIPITATION /E.G. RAIN...SNOW...ETC/
    THUNDER OR FOG.

PAZ002>004-007>009-013>016-020>023-029>032-180400-
WESTERN PENNSYLVANIA

CITY           SKY/WX    TMP DP  RH WIND       PRES   REMARKS
ERIE           CLOUDY    31  25  78 S9        29.98F
MEADVILLE      LGT SNOW  27  27 100 CALM      29.96F FOG
FRANKLIN*      LGT SNOW  27  26  96 SW5       29.97S FOG
NEW CASTLE     LGT SNOW  29  29 100 CALM      30.01S FOG
BEAVER COUNTY  NOT AVBL
BUTLER*        MIX PCPN  32  31  96 SW6       29.99S FOG
PITTSBURGH INT LGT SNOW  33  32  96 W7        29.99S FOG
PITTSBURGH     CLOUDY    32  29  88 S5        29.98F FOG
INDIANA*       CLOUDY    32  32 100 CALM      30.02S FOG
LATROBE        LGT SNOW  32  32 100 CALM      30.01S
WASHINGTON CO* LGT SNOW  33  32  96 SW5       30.03S FOG
$$

PAZ004>006-010>012-017>019-024>028-033>037-041-042-045-046-049>053-180400-
CENTRAL PENNSYLVANIA

CITY           SKY/WX    TMP DP  RH WIND       PRES   REMARKS
BRADFORD       LGT SNOW  28  26  92 S5        29.91S FOG
DUBOIS         CLOUDY    29  26  89 VRB3      29.93F FOG
CLEARFIELD     LGT SNOW  29  27  92 CALM      29.97F FOG
JOHNSTOWN      LGT SNOW  28  25  88 SW7       29.93S FOG
ALTOONA        LGT SNOW  29  28  96 S3        29.98F FOG
STATE COLLEGE  SNOW      28  28 100 CALM      30.00F VSB 1/2
WILLIAMSPORT   LGT SNOW  30  29  96 NE7       30.04F FOG
SELINSGROVE    LGT SNOW  30  28  92 S3        30.06F FOG
FT INDIANTOWN  LGT SNOW N/A N/A N/A CALM      30.08S
CAPITAL CITY   LGT SNOW  33  30  88 SE3       30.07F FOG
HARRISBURG     LGT SNOW  32  29  88 E3        30.07F
YORK           CLOUDY    31  31 100 CALM      30.06F FOG
$$

PAZ038>040-043-044-047-048-054-055-060>062-067>071-180400-
EASTERN PENNSYLVANIA

CITY           SKY/WX    TMP DP  RH WIND       PRES   REMARKS
SCRANTON       LGT SNOW  30  29  96 CALM      30.03F FOG
MOUNT POCONO   NOT AVBL
ALLENTOWN      LGT SNOW  34  30  85 CALM      30.06S VSB 1
QUAKERTOWN*      N/A     32  32 100 CALM      30.06F FOG
READING        LGT SNOW  32  32 100 CALM      30.06F FOG
LANCASTER      CLOUDY    31  31 100 CALM      30.07F FOG
COATESVILLE    CLOUDY    32 N/A N/A CALM      30.06F HAZE
POTTSTOWN      LGT SNOW  31  31 100 CALM      30.07F FOG
BLUE BELL      CLOUDY    32  32 100 CALM      30.08F
DOYLESTOWN     CLOUDY    32  31  96 CALM      30.06F
WILLOW GROVE   NOT AVBL
NORTH PHILA    CLOUDY    35  32  88 N3        30.08R
PHILADELPHIA   LGT SNOW  32  32 100 N5        30.08S FOG
$$




USA.gov is the U.S. government's official web portal to all federal, state and local government web resources and services.